Total_Precipitation_Accumulation
1.90 2.03 1.96 1.90 1.89 1.94 2.00 2.09 2.13 1.99 1.69 1.25 1.08 1.03 1.05 1.14 1.46 1.33 1.20 1.19 1.08 1.01 0.91 0.86 0.86 0.87 1.03 1.27 1.56 1.80 1.95 2.07 2.12 2.23 2.38 2.32 2.40 2.45
1.71 1.82 1.95 1.96 1.95 1.95 2.00 2.03 2.01 1.99 1.85 1.43 1.16 1.00 1.05 1.02 1.24 1.03 1.13 1.31 1.09 0.93 0.85 0.80 0.80 0.79 0.80 0.91 1.02 1.11 1.19 1.24 1.37 1.66 1.85 1.81 1.80 1.91
1.50 1.53 1.70 1.82 1.94 1.96 1.95 1.94 1.99 1.96 1.82 1.57 1.24 1.06 1.14 1.15 1.22 1.06 1.04 1.08 1.00 0.96 0.87 0.80 0.75 0.77 0.74 0.75 0.78 0.79 0.84 0.86 0.93 1.12 1.31 1.35 1.34 1.36
1.36 1.44 1.49 1.50 1.61 1.74 1.83 1.80 1.88 1.92 1.90 1.78 1.48 1.25 1.23 1.30 1.45 1.44 1.31 1.20 1.17 1.25 1.19 1.01 0.87 0.84 0.84 0.78 0.73 0.69 0.66 0.70 0.73 0.80 0.93 1.11 1.23 1.23
1.17 1.25 1.28 1.35 1.49 1.49 1.55 1.63 1.70 1.76 1.88 1.83 1.74 1.61 1.44 1.36 1.42 1.39 1.44 1.57 1.50 1.47 1.50 1.32 1.11 0.98 0.93 0.89 0.82 0.74 0.68 0.68 0.71 0.74 0.77 0.84 0.95 1.07
1.04 1.12 1.17 1.22 1.32 1.37 1.37 1.49 1.63 1.72 1.75 1.73 1.68 1.61 1.55 1.50 1.49 1.46 1.51 1.64 1.71 1.59 1.55 1.45 1.36 1.25 1.12 1.03 0.93 0.87 0.80 0.74 0.75 0.77 0.77 0.79 0.83 0.90
0.97 1.00 1.03 1.01 1.03 1.09 1.08 1.27 1.43 1.61 1.68 1.72 1.63 1.51 1.47 1.47 1.43 1.44 1.52 1.70 1.73 1.76 1.74 1.59 1.45 1.28 1.19 1.12 1.02 0.98 0.94 0.84 0.79 0.79 0.80 0.79 0.82 0.88
0.87 0.90 0.98 1.01 0.95 0.90 0.88 0.94 1.07 1.20 1.40 1.53 1.57 1.50 1.42 1.40 1.48 1.57 1.57 1.66 1.77 1.69 1.59 1.66 1.58 1.48 1.32 1.16 1.16 1.16 1.06 0.94 0.85 0.81 0.79 0.77 0.77 0.82
0.67 0.81 0.94 0.99 1.02 1.03 0.92 0.90 0.89 0.91 1.02 1.21 1.35 1.37 1.36 1.38 1.47 1.56 1.63 1.67 1.53 1.56 1.52 1.63 1.61 1.48 1.33 1.29 1.34 1.21 1.14 1.06 0.99 0.91 0.85 0.83 0.82 0.84
0.59 0.70 0.86 0.98 1.04 1.07 1.02 1.07 1.02 0.90 0.87 0.93 1.11 1.21 1.24 1.40 1.58 1.71 1.82 1.80 1.67 1.60 1.52 1.56 1.50 1.37 1.27 1.25 1.35 1.23 1.12 1.05 1.00 0.97 0.93 0.89 0.89 0.92
0.57 0.65 0.80 0.89 1.03 1.08 1.03 1.12 1.10 0.91 0.84 0.92 0.96 1.04 1.17 1.33 1.52 1.72 1.81 1.79 1.74 1.65 1.46 1.32 1.25 1.30 1.32 1.26 1.23 1.22 1.10 1.00 0.92 0.88 0.86 0.84 0.86 0.96
0.59 0.63 0.84 0.91 0.97 0.94 0.93 1.13 1.22 1.06 0.82 0.81 0.88 1.02 1.13 1.28 1.52 1.67 1.92 1.92 1.71 1.63 1.47 1.31 1.28 1.37 1.50 1.39 1.21 1.11 1.04 1.05 1.02 0.96 0.92 0.91 1.00 0.97
0.48 0.53 0.55 0.69 0.74 0.79 0.89 0.97 1.10 1.00 0.88 0.96 1.06 1.09 1.19 1.26 1.38 1.49 1.74 1.93 1.85 1.61 1.45 1.43 1.39 1.36 1.35 1.31 1.22 1.11 1.00 0.98 0.97 0.97 1.01 1.04 1.08 1.05
0.39 0.44 0.50 0.63 0.66 0.70 0.75 0.80 0.86 0.90 0.94 1.07 1.10 1.01 1.07 1.16 1.22 1.32 1.46 1.60 1.50 1.42 1.30 1.24 1.24 1.18 1.13 1.06 1.04 1.07 1.08 1.02 0.98 0.98 0.97 1.14 1.18 1.18
0.36 0.44 0.47 0.56 0.55 0.57 0.65 0.68 0.74 0.95 1.08 1.04 1.02 0.97 0.97 1.04 1.08 1.22 1.38 1.52 1.48 1.32 1.19 1.08 1.07 1.06 1.03 0.97 0.90 0.87 0.93 0.97 0.93 0.93 0.97 1.00 1.02 1.11
0.39 0.45 0.48 0.53 0.52 0.53 0.60 0.69 0.79 0.95 1.10 0.98 0.87 0.87 0.91 1.03 1.13 1.14 1.22 1.28 1.43 1.43 1.28 1.16 1.11 1.10 1.06 0.95 0.91 0.85 0.78 0.80 0.85 0.92 0.96 0.97 0.97 0.98
0.42 0.50 0.61 0.69 0.68 0.68 0.74 0.78 0.80 0.82 0.89 0.84 0.84 0.91 0.98 1.01 1.08 1.13 1.15 1.14 1.15 1.17 1.21 1.18 1.14 1.16 1.16 1.09 1.00 0.89 0.83 0.77 0.80 0.92 1.04 1.07 1.02 1.00
0.53 0.55 0.66 0.81 0.86 0.87 0.88 0.89 0.90 0.86 0.88 0.85 0.88 0.93 0.94 0.94 0.96 1.05 1.16 1.21 1.13 1.02 0.97 0.96 1.02 1.13 1.19 1.17 1.04 0.92 0.90 0.89 0.89 0.91 0.94 0.98 0.96 0.94
0.55 0.59 0.78 0.83 0.82 0.85 0.90 0.95 0.88 0.78 0.80 0.82 0.80 0.81 0.82 0.82 0.83 0.88 0.97 1.05 1.07 1.01 0.94 0.92 0.96 1.05 1.10 1.01 0.90 0.80 0.84 0.90 0.97 0.96 0.90 0.85 0.82 0.81
0.60 0.77 0.94 0.99 0.93 0.86 0.84 0.81 0.74 0.68 0.68 0.69 0.72 0.74 0.78 0.80 0.79 0.78 0.80 0.85 0.90 0.93 0.98 0.98 1.00 1.04 1.08 1.04 0.92 0.80 0.77 0.84 0.91 0.96 0.93 0.92 0.93 0.97
0.65 0.78 0.90 0.99 0.94 0.81 0.73 0.69 0.66 0.65 0.63 0.65 0.70 0.75 0.76 0.78 0.77 0.77 0.76 0.81 0.84 0.85 0.87 0.86 0.90 1.09 1.15 1.20 1.14 0.91 0.82 0.91 0.99 1.00 0.99 1.03 1.03 0.97
0.61 0.63 0.66 0.67 0.63 0.62 0.65 0.64 0.63 0.66 0.67 0.66 0.70 0.73 0.78 0.84 0.83 0.79 0.77 0.77 0.77 0.77 0.77 0.79 0.88 1.05 1.14 1.20 1.11 0.95 0.85 0.88 1.02 1.13 1.10 1.06 1.03 0.98
0.60 0.58 0.59 0.59 0.59 0.58 0.60 0.60 0.61 0.63 0.65 0.68 0.72 0.76 0.77 0.78 0.82 0.83 0.79 0.78 0.78 0.77 0.79 0.82 0.87 0.99 1.11 1.14 1.12 1.02 0.95 0.92 0.93 0.95 0.95 1.01 0.97 0.90